sat.trackr.live / text

‹ back to catalog

STARLINK-34529

NORAD 64936 · 2025-158E

PAYLOAD ACTIVE UNKNOWN

§ Identity

Operator
Country
US
Launch date
2025-07-27
Launch site
AFWTR
Launch vehicle
Mass (kg)
RCS (m²)

Purposes: comms

External: N2YO · Heavens-Above · Gunter

§ Orbital elements

Epoch: 2026-09-20T12:06:13.757760Z

Period
93.91 min
Inclination
97.2858°
Eccentricity
0.0001436
Mean motion
15.33449053 rev/d
Perigee alt
464.5 km
Apogee alt
466.5 km
Semi-major
6,843.7 km
B*
3.9932e-4
RAAN
121.7626°
Arg perigee
95.4948°
Mean anomaly
264.6458°
Rev number
6,470

§ Raw data

STARLINK-345291 64936U 25158E   26263.50432590  .00012840  00000+0  39932-3 0  99992 64936  97.2858 121.7626 0001436  95.4948 264.6458 15.33449053 64706

JSON: /api/v1/satellites/64936 · /tle

For live sub-satellite position, see the globe view (requires WebGL).

§ Visibility from observer

Set your observer location to see the next 7 days of passes ≥ 10°. The values pass through the URL so the page stays shareable.

No JS? Fill the form by hand. The geolocation button needs JavaScript.